User: anonymous   Login
Location: Colonie
(42.7179°N, 73.8335°W)
Time: 21:26:46
(UTC+00:00)
Language:

Cosmos 2219 - Orbit

View from above orbital plane
View from above orbital plane
View from above satellite
View from above satellite

Ground track
Ground track

The orbit data is extracted from the following two-line orbital elements,

1 22219U 92076A   21016.34666593 -.00000037  00000-0  51662-5 0  9998
2 22219  71.0625 342.9763 0018604 197.6954 162.3523 14.13660137452907
Epoch (UTC): 16 January 2021 08:19:11
Eccentricity: 0.0018604
inclination: 71.0625°
perigee height: 833 km
apogee height: 860 km
right ascension of ascending node: 342.9763°
argument of perigee: 197.6954°
revolutions per day: 14.13660137
mean anomaly at epoch: 162.3523°
orbit number at epoch: 45290

The dashed part of the orbit path shows where the satellite is in the earth's shadow,  

DLR